Voltar ao catálogo

COSMOS 1980 DEB

AtivoLEO
NORAD 20301·DEBRIS·🇷🇺 Russia

Lançado Nov 23, 1988 de Baikonur Cosmodrome

Loading…

Próximas Passagens (próximas 24 horas)

TLE

AtualizadoSource: Space-Track

Época: Sep 14, 2026, 12:58 UTC

1 20301U 88102J   26257.54042502 -.00000268  00000-0 -11456-3 0  9997
2 20301  70.9972 196.2275 0015349   5.8027 354.3270 14.14492525917972

Acompanhe COSMOS 1980 DEB em tempo real com AllMySat

Download on the App Store